Latest Coastal Weather Observations for Ngayawili (Elcho Island)

IDD60701

Issued at 11:51 am CST Wednesday 23 August 2017 (issued every 10 minutes, with the page automatically refreshed every 10 minutes)

About coastal observations | Map of coastal stations | Coastal observations for NT | Marine services | Other Formats
Station Details ID: 014517 Name: NGAYAWILI Lat: -12.00 Lon: 135.57 Height: 8.1 m
Data from the previous 72 hours. | See also: Recent months at Ngayawili (Elcho Island)
Date/Time
CST
Temp
°C
Wind Pressure Rain since
9am
mm
Weather Cloud Vis
km
Sea
Height
m
Swell
Dir  Spd
kts
Gust
kts
hPa Trend Height
m
Period
s
Dir
23/11:30am 28.9 CALM 0 0 1015.8 - 0.0 - - - - - - -
23/11:00am 28.6 CALM 0 0 1016.1 - 0.0 - - - - - - -
23/10:30am 28.1 CALM 0 0 1016.2 - 0.0 - - - - - - -
23/10:00am 27.2 CALM 0 0 1016.2 - 0.0 - - - - - - -
23/09:30am 27.2 CALM 0 0 1016.3 - 0.0 - - - - - - -
23/09:00am 25.0 CALM 0 0 1016.3 - 0.0 - - - - - - -
23/08:30am 24.1 CALM 0 0 1016.3 - 0.0 - - - - - - -
23/08:00am 22.6 CALM 0 0 1016.1 - 0.0 - - - - - - -
23/07:30am 20.8 CALM 0 0 1015.9 - 0.0 - - - - - - -
23/07:00am 19.1 CALM 0 0 1015.7 - 0.0 - - - - - - -
23/06:30am 20.2 CALM 0 0 1015.2 - 0.0 - - - - - - -
23/06:00am 20.2 CALM 0 0 1014.9 - 0.0 - - - - - - -
23/05:30am 21.0 CALM 0 0 1014.5 - 0.0 - - - - - - -
23/05:00am 21.3 CALM 0 0 1014.3 - 0.0 - - - - - - -
23/04:30am 21.6 CALM 0 0 1014.3 - 0.0 - - - - - - -
23/04:00am 21.9 CALM 0 0 1014.1 - 0.0 - - - - - - -
23/03:30am 22.1 CALM 0 0 1014.2 - 0.0 - - - - - - -
23/03:00am 22.3 CALM 0 0 1014.2 - 0.0 - - - - - - -
23/02:30am 22.2 CALM 0 0 1014.2 - 0.0 - - - - - - -
23/02:00am 22.1 CALM 0 0 1014.4 - 0.0 - - - - - - -
23/01:30am 23.2 CALM 0 0 1014.4 - 0.0 - - - - - - -
23/01:00am 23.5 CALM 0 0 1014.7 - 0.0 - - - - - - -
23/12:30am 23.8 CALM 0 0 1015.1 - 0.0 - - - - - - -
23/12:00am 24.0 CALM 0 0 1015.4 - 0.0 - - - - - - -
 
Date/Time
CST
Temp
°C
Wind Pressure Rain since
9am
mm
Weather Cloud Vis
km
Sea
Height
m
Swell
Dir  Spd
kts
Gust
kts
hPa Trend Height
m
Period
s
Dir
22/11:30pm 23.8 CALM 0 0 1015.6 - 0.0 - - - - - - -
22/11:00pm 23.5 CALM 0 0 1015.4 - 0.0 - - - - - - -
22/10:30pm 23.8 CALM 0 0 1015.2 - 0.0 - - - - - - -
22/10:00pm 24.2 CALM 0 0 1015.1 - 0.0 - - - - - - -
22/09:30pm 24.4 CALM 0 0 1014.8 - 0.0 - - - - - - -
22/09:00pm 24.6 CALM 0 0 1014.6 - 0.0 - - - - - - -
22/08:30pm 24.8 CALM 0 0 1014.5 - 0.0 - - - - - - -
22/08:00pm 24.7 CALM 0 0 1014.2 - 0.0 - - - - - - -
22/07:30pm 24.8 CALM 0 0 1013.8 - 0.0 - - - - - - -
22/07:00pm 25.2 CALM 0 0 1013.4 - 0.0 - - - - - - -
22/06:30pm 25.9 CALM 0 0 1012.9 - 0.0 - - - - - - -
22/06:00pm 26.7 CALM 0 0 1012.4 - 0.0 - - - - - - -
22/05:30pm 27.3 CALM 0 0 1012.1 - 0.0 - - - - - - -
22/05:00pm 28.2 CALM 0 0 1011.9 - 0.0 - - - - - - -
22/04:30pm 28.7 CALM 0 0 1011.8 - 0.0 - - - - - - -
22/04:00pm 29.2 CALM 0 0 1011.8 - 0.0 - - - - - - -
22/03:30pm 30.4 CALM 0 0 1012.0 - 0.0 - - - - - - -
22/03:00pm 29.5 CALM 0 0 1012.4 - 0.0 - - - - - - -
22/02:30pm 28.9 CALM 0 0 1012.7 - 0.0 - - - - - - -
22/02:00pm 29.0 CALM 0 0 1013.0 - 0.0 - - - - - - -
22/01:30pm 29.4 CALM 0 0 1013.3 - 0.0 - - - - - - -
22/01:00pm 29.2 CALM 0 0 1013.7 - 0.0 - - - - - - -
22/12:30pm 29.8 CALM 0 0 1014.2 - 0.0 - - - - - - -
22/12:00pm 30.1 CALM 0 0 1014.5 - 0.0 - - - - - - -
22/11:30am 28.8 CALM 0 0 1014.9 - 0.0 - - - - - - -
22/11:00am 28.9 CALM 0 0 1015.0 - 0.0 - - - - - - -
22/10:30am 28.7 CALM 0 0 1015.0 - 0.0 - - - - - - -
22/10:00am 28.3 CALM 0 0 1015.0 - 0.0 - - - - - - -
22/09:30am 26.5 CALM 0 0 1015.1 - 0.0 - - - - - - -
22/09:00am 26.0 CALM 0 0 1015.1 - 0.0 - - - - - - -
22/08:30am 25.8 CALM 0 0 1014.9 - 0.0 - - - - - - -
22/08:00am 24.5 CALM 0 0 1014.8 - 0.0 - - - - - - -
22/07:30am 22.6 CALM 0 0 1014.5 - 0.0 - - - - - - -
22/07:00am 20.2 CALM 0 0 1014.2 - 0.0 - - - - - - -
22/06:30am 19.4 CALM 0 0 1014.0 - 0.0 - - - - - - -
22/06:00am 20.5 CALM 0 0 1013.7 - 0.0 - - - - - - -
22/05:30am 20.0 CALM 0 0 1013.5 - 0.0 - - - - - - -
22/05:00am 19.6 CALM 0 0 1013.3 - 0.0 - - - - - - -
22/04:30am 19.8 CALM 0 0 1013.1 - 0.0 - - - - - - -
22/04:00am 20.0 CALM 0 0 1013.1 - 0.0 - - - - - - -
22/03:30am 20.8 CALM 0 0 1013.1 - 0.0 - - - - - - -
22/03:00am 22.1 CALM 0 0 1013.2 - 0.0 - - - - - - -
22/02:30am 22.7 CALM 0 0 1013.3 - 0.0 - - - - - - -
22/02:00am 23.4 CALM 0 0 1013.6 - 0.0 - - - - - - -
22/01:30am 23.6 CALM 0 0 1013.8 - 0.0 - - - - - - -
22/01:00am 23.8 CALM 0 0 1014.1 - 0.0 - - - - - - -
22/12:30am 24.1 CALM 0 0 1014.2 - 0.0 - - - - - - -
22/12:00am 24.3 CALM 0 0 1014.2 - 0.0 - - - - - - -
 
Date/Time
CST
Temp
°C
Wind Pressure Rain since
9am
mm
Weather Cloud Vis
km
Sea
Height
m
Swell
Dir  Spd
kts
Gust
kts
hPa Trend Height
m
Period
s
Dir
21/11:30pm 24.4 CALM 0 0 1014.2 - 0.0 - - - - - - -
21/11:00pm 24.6 CALM 0 0 1014.3 - 0.0 - - - - - - -
21/10:30pm 24.9 CALM 0 0 1014.0 - 0.0 - - - - - - -
21/10:00pm 25.2 CALM 0 0 1014.0 - 0.0 - - - - - - -
21/09:30pm 25.4 CALM 0 0 1013.8 - 0.0 - - - - - - -
21/09:00pm 24.7 CALM 0 0 1013.6 - 0.0 - - - - - - -
21/08:30pm 25.0 CALM 0 0 1013.3 - 0.0 - - - - - - -
21/08:00pm 25.1 CALM 0 0 1012.8 - 0.0 - - - - - - -
21/07:30pm 25.3 CALM 0 0 1012.5 - 0.0 - - - - - - -
21/07:00pm 25.7 CALM 0 0 1012.1 - 0.0 - - - - - - -
21/06:30pm 26.6 CALM 0 0 1011.7 - 0.0 - - - - - - -
21/06:00pm 27.9 CALM 0 0 1011.5 - 0.0 - - - - - - -
21/05:30pm 28.8 CALM 0 0 1011.3 - 0.0 - - - - - - -
21/05:00pm 29.4 CALM 0 0 1011.2 - 0.0 - - - - - - -
21/04:30pm 30.3 CALM 0 0 1011.1 - 0.0 - - - - - - -
21/04:00pm 30.3 CALM 0 0 1011.1 - 0.0 - - - - - - -
21/03:30pm 30.3 CALM 0 0 1011.0 - 0.0 - - - - - - -
21/03:00pm 30.2 CALM 0 0 1011.1 - 0.0 - - - - - - -
21/02:30pm 31.1 CALM 0 0 1011.4 - 0.0 - - - - - - -
21/02:00pm 30.0 CALM 0 0 1011.8 - 0.0 - - - - - - -
21/01:30pm 30.6 CALM 0 0 1012.2 - 0.0 - - - - - - -
21/01:00pm 29.8 CALM 0 0 1012.5 - 0.0 - - - - - - -
21/12:30pm 29.2 CALM 0 0 1012.9 - 0.0 - - - - - - -
21/12:00pm 29.1 CALM 0 0 1013.4 - 0.0 - - - - - - -
21/11:30am 27.5 CALM 0 0 1013.7 - 0.0 - - - - - - -
21/11:00am 28.3 CALM 0 0 1013.9 - 0.0 - - - - - - -
21/10:30am 29.2 CALM 0 0 1014.0 - 0.0 - - - - - - -
21/10:00am 27.0 CALM 0 0 1014.3 - 0.0 - - - - - - -
21/09:30am 26.6 CALM 0 0 1014.3 - 0.0 - - - - - - -
21/09:00am 25.7 CALM 0 0 1014.0 - 0.0 - - - - - - -
21/08:30am 24.6 CALM 0 0 1013.7 - 0.0 - - - - - - -
21/08:00am 22.5 CALM 0 0 1013.6 - 0.0 - - - - - - -
21/07:30am 21.3 CALM 0 0 1013.2 - 0.0 - - - - - - -
21/07:00am 20.3 CALM 0 0 1012.9 - 0.0 - - - - - - -
21/06:30am 20.1 CALM 0 0 1012.7 - 0.0 - - - - - - -
21/06:00am 19.5 CALM 0 0 1012.4 - 0.0 - - - - - - -
21/05:30am 20.2 CALM 0 0 1012.0 - 0.0 - - - - - - -
21/05:00am 20.9 CALM 0 0 1011.7 - 0.0 - - - - - - -
21/04:30am 21.9 CALM 0 0 1011.6 - 0.0 - - - - - - -
21/04:00am 22.3 CALM 0 0 1011.6 - 0.0 - - - - - - -
21/03:30am 22.2 CALM 0 0 1011.7 - 0.0 - - - - - - -
21/03:00am 21.9 CALM 0 0 1011.8 - 0.0 - - - - - - -
21/02:30am 20.9 CALM 0 0 1012.0 - 0.0 - - - - - - -
21/02:00am 22.1 CALM 0 0 1012.2 - 0.0 - - - - - - -
21/01:30am 22.6 CALM 0 0 1012.5 - 0.0 - - - - - - -
21/01:00am 22.9 CALM 0 0 1012.7 - 0.0 - - - - - - -
21/12:30am 23.3 CALM 0 0 1013.0 - 0.0 - - - - - - -
21/12:00am 23.7 CALM 0 0 1013.2 - 0.0 - - - - - - -
 
Date/Time
CST
Temp
°C
Wind Pressure Rain since
9am
mm
Weather Cloud Vis
km
Sea
Height
m
Swell
Dir  Spd
kts
Gust
kts
hPa Trend Height
m
Period
s
Dir
20/11:30pm 23.9 CALM 0 0 1013.4 - 0.0 - - - - - - -
20/11:00pm 24.0 CALM 0 0 1013.4 - 0.0 - - - - - - -
20/10:30pm 24.2 CALM 0 0 1013.3 - 0.0 - - - - - - -
20/10:00pm 24.6 CALM 0 0 1013.3 - 0.0 - - - - - - -
20/09:30pm 25.1 CALM 0 0 1013.2 - 0.0 - - - - - - -
20/09:00pm 25.6 CALM 0 0 1012.9 - 0.0 - - - - - - -
20/08:30pm 25.9 CALM 0 0 1012.6 - 0.0 - - - - - - -
20/08:00pm 26.4 CALM 0 0 1012.2 - 0.0 - - - - - - -
20/07:30pm 26.7 CALM 0 0 1011.9 - 0.0 - - - - - - -
20/07:00pm 27.3 CALM 0 0 1011.5 - 0.0 - - - - - - -
20/06:30pm 28.0 CALM 0 0 1011.1 - 0.0 - - - - - - -
20/06:00pm 28.6 CALM 0 0 1010.9 - 0.0 - - - - - - -
20/05:30pm 29.6 CALM 0 0 1010.6 - 0.0 - - - - - - -
20/05:00pm 30.4 CALM 0 0 1010.5 - 0.0 - - - - - - -
20/04:30pm 31.3 CALM 0 0 1010.4 - 0.0 - - - - - - -
20/04:00pm 31.6 CALM 0 0 1010.4 - 0.0 - - - - - - -
20/03:30pm 32.4 CALM 0 0 1010.4 - 0.0 - - - - - - -
20/03:00pm 32.7 CALM 0 0 1010.7 - 0.0 - - - - - - -
20/02:30pm 32.6 CALM 0 0 1010.9 - 0.0 - - - - - - -
20/02:00pm 32.4 CALM 0 0 1011.2 - 0.0 - - - - - - -
20/01:30pm 31.6 CALM 0 0 1011.6 - 0.0 - - - - - - -
20/01:00pm 31.2 CALM 0 0 1012.1 - 0.0 - - - - - - -
20/12:30pm 31.2 CALM 0 0 1012.7 - 0.0 - - - - - - -
20/12:00pm 30.6 CALM 0 0 1013.3 - 0.0 - - - - - - -

Other Formats:

Comma delimited format used in spreadsheet applications
http://www.bom.gov.au/fwo/IDD60701/IDD60701.95146.axf

JavaScript Object Notation format (JSON) in row-major order
http://www.bom.gov.au/fwo/IDD60701/IDD60701.95146.json